Location: Castle Hill Houses
(40.8186°N, 73.8497°W)
Time: 05:23:28
(UTC+00:00)

Cosmos 1371 Rocket - Pass Details

Date: 26 January 2020
Orbit: 753 x 790 km, 74.0° (Epoch: 25 February)

Event Time Altitude Azimuth Distance (km) Brightness Sun altitude
Exits shadow 10:55:25 - 331° (NNW) 2,471 6.2 -14.4°
Reaches altitude 10° 10:55:46 10° 330° (NNW) 2,337 6.1 -14.4°
Maximum altitude 11:00:53 51° 256° (WSW) 983 4.2 -13.4°
Drops below altitude 10° 11:06:02 10° 182° (S) 2,340 6.7 -12.5°
Sets 11:08:28 0° 177° (S) 3,267 7.5 -12.0°
